Wind_Speed
13 14 13 14 14 14 14 13 13 13 13 13 13 13 14 15 15 14 15 15 15 16 15 15 14 15 14 15 15 16 16 17 17 17 18 17 17 17 17 17 17 17 16
12 13 13 13 13 13 13 13 13 12 13 13 13 14 14 15 15 15 15 15 15 16 16 16 16 16 15 15 16 16 16 17 18 18 18 18 18 18 18 18 18 18 18
12 12 12 13 13 13 13 13 13 14 13 13 14 14 13 14 15 15 15 15 16 16 16 16 16 16 16 16 17 17 17 17 18 18 18 18 19 19 19 19 19 19 18
12 12 13 13 13 14 13 14 14 14 14 14 14 14 14 14 14 15 15 15 15 15 15 16 16 17 17 17 17 18 18 19 18 18 19 19 20 19 19 20 20 21 20
12 12 13 13 13 13 13 13 14 14 14 14 14 14 14 14 14 15 15 16 16 16 15 15 15 16 17 17 17 17 18 19 19 19 19 19 20 20 20 20 21 21 21
12 12 12 12 12 13 12 12 13 13 14 14 14 14 15 15 15 15 15 15 16 16 16 15 15 15 16 16 17 17 18 18 19 18 19 19 20 20 20 21 21 21 22
12 12 12 12 12 13 13 13 13 14 14 14 14 15 15 16 16 16 16 16 16 16 16 16 15 15 16 16 17 18 18 18 19 19 19 19 20 20 20 21 21 21 22
12 12 13 13 13 13 13 13 13 13 14 14 14 15 15 15 16 16 16 16 16 16 16 16 17 16 16 16 16 17 17 18 18 19 19 18 19 20 20 20 21 22 22
10 12 12 13 13 13 13 13 14 14 14 14 15 15 15 16 16 16 16 17 17 17 17 17 17 17 17 17 16 16 16 16 17 17 18 19 19 21 21 21 22 23 22
11 11 12 12 12 13 13 13 14 14 15 15 15 15 15 15 16 16 17 17 18 18 18 17 17 18 18 18 17 17 16 16 16 18 19 20 20 21 22 22 22 22 22
11 12 12 12 12 13 13 13 14 14 15 15 15 15 15 15 16 16 16 17 17 18 18 18 18 18 19 18 18 18 18 17 17 18 19 20 21 22 22 22 22 22 22
11 12 11 12 12 12 12 13 14 14 15 15 15 15 15 15 15 16 16 16 16 17 17 18 18 19 19 18 18 18 18 18 19 19 20 20 21 22 22 23 23 23 23
10 10 10 11 12 12 13 13 13 14 14 14 14 14 15 15 15 15 15 16 16 16 17 17 17 18 18 18 18 18 18 19 19 20 21 21 22 22 23 23 23 24 24
10 10 10 11 11 12 13 13 13 13 13 13 14 14 15 15 15 15 15 15 16 16 16 16 16 16 17 18 18 18 19 19 19 20 21 22 22 23 23 24 24 25 26
10 10 10 11 12 12 12 12 12 13 13 14 13 14 14 15 15 15 15 15 15 15 16 16 16 16 16 17 18 18 19 20 20 20 21 21 22 22 23 24 25 26 26
10 10 11 12 12 12 12 12 12 12 13 13 13 13 14 14 14 13 14 15 15 15 15 15 15 16 17 17 18 18 19 19 19 20 20 21 22 22 23 24 25 26 27
11 11 11 12 13 13 12 12 13 12 12 12 12 12 11 12 13 13 14 15 15 15 15 15 15 16 17 17 18 18 18 19 19 21 21 22 22 23 24 24 25 26 26
11 12 12 13 14 14 13 13 13 12 13 12 12 12 12 12 13 14 14 15 15 15 15 15 16 16 16 16 17 18 18 19 20 21 22 23 23 23 24 24 25 25 26
12 12 13 13 13 13 13 13 12 12 12 12 11 12 12 12 12 13 14 15 15 15 15 16 16 16 15 15 16 18 19 20 21 21 22 23 23 23 24 24 25 25 26
12 12 13 13 12 12 12 12 11 11 11 11 11 11 12 12 12 13 14 14 14 15 15 15 15 15 16 16 17 18 19 20 21 21 22 22 23 23 24 24 25 25 26
12 12 12 12 13 13 13 12 11 10 11 11 11 12 12 12 12 13 13 13 14 14 14 14 15 16 16 17 18 18 19 19 20 21 21 22 23 24 24 24 25 26 26
11 12 12 12 12 13 12 11 11 10 11 11 11 12 12 12 13 13 13 13 14 14 14 14 15 16 17 17 17 18 18 19 19 20 21 22 22 23 24 24 25 25 26
11 10 11 11 12 12 12 12 12 11 11 12 12 12 12 13 12 12 12 13 14 14 14 15 15 16 17 18 18 18 18 18 19 19 20 20 21 22 22 23 24 24 25
9 9 9 10 11 11 12 12 11 12 12 12 13 13 13 13 13 13 13 14 14 14 14 15 16 17 17 18 18 18 19 19 20 20 20 20 20 21 22 23 23 23 25
9 9 9 10 11 11 11 11 11 11 12 12 12 12 12 12 13 13 14 14 14 15 15 15 17 17 18 18 18 19 19 20 20 20 21 21 21 21 22 22 22 23 24
10 10 10 11 11 12 11 11 11 11 10 11 11 12 12 12 12 13 13 14 14 14 15 16 17 17 17 17 18 19 20 20 20 21 21 21 21 22 22 22 23 23 24
Wind_Direction
276 276 277 277 277 274 270 268 269 268 268 268 268 265 266 264 264 264 264 262 261 262 261 260 264 267 269 265 263 262 261 257 257 254 253 252 252 252 251 250 249 249 250
278 277 276 276 274 272 271 269 268 266 267 268 268 267 269 268 268 266 266 266 264 262 260 260 264 267 269 266 262 262 262 259 257 254 253 252 253 252 253 252 251 249 250
276 277 277 274 272 271 270 269 268 267 267 268 271 271 271 268 267 267 268 265 262 261 262 263 264 266 267 266 262 264 263 263 257 255 255 253 251 251 252 253 251 249 252
274 275 274 273 272 270 269 268 267 266 266 266 269 271 270 270 269 267 267 265 262 261 263 264 264 265 265 264 264 264 262 261 259 255 254 254 253 251 251 253 252 252 253
273 273 274 275 275 274 272 270 268 267 267 267 267 267 267 268 269 269 268 265 262 262 263 262 266 266 264 264 266 265 263 261 259 257 256 256 256 255 255 256 256 255 254
273 275 274 277 278 277 275 272 268 266 265 266 267 267 267 267 268 270 269 266 264 262 261 262 265 266 265 264 265 264 262 262 260 260 259 258 258 258 258 260 260 258 255
271 273 275 279 277 274 272 271 267 266 267 268 269 269 269 268 267 269 268 267 265 261 261 262 263 265 263 265 265 262 262 261 261 261 261 260 260 260 260 261 260 259 258
274 272 273 278 278 275 272 269 270 270 270 270 271 271 268 267 268 268 266 264 263 261 264 265 265 264 263 264 266 266 263 262 262 261 260 261 260 259 259 262 261 260 260
276 276 276 280 282 278 272 271 270 269 270 271 271 271 268 267 268 266 265 265 263 262 263 266 264 262 263 267 268 267 266 265 263 262 261 261 261 259 259 262 262 261 261
274 278 280 282 283 281 277 274 273 271 270 270 270 271 269 267 267 266 264 265 265 264 263 264 264 263 267 271 272 269 268 269 268 266 264 263 263 261 261 262 262 262 263
276 278 283 283 284 284 280 276 274 272 270 271 270 269 267 267 267 267 267 267 267 266 265 265 265 267 268 271 271 270 268 268 270 271 270 268 268 266 264 264 265 265 264
276 279 283 285 287 286 282 278 275 275 272 272 269 267 267 267 268 267 266 267 268 269 267 267 268 267 268 269 269 268 266 267 269 272 273 271 270 269 267 266 267 266 266
279 280 284 287 288 287 288 284 280 279 275 273 268 266 267 266 266 266 266 267 270 272 270 269 268 268 268 268 266 269 270 270 270 272 272 272 271 270 268 268 268 267 267
278 283 285 288 291 293 293 289 281 278 275 273 271 268 268 268 263 266 268 269 271 271 271 271 271 271 269 268 267 270 273 275 275 274 273 273 272 272 271 271 270 268 268
278 282 286 289 291 295 297 292 283 280 277 275 273 271 272 269 266 266 267 271 273 272 271 271 273 274 272 271 269 271 274 276 276 275 275 275 274 274 274 273 272 271 271
281 283 290 292 291 293 294 291 286 284 281 278 277 276 275 272 269 269 271 272 274 274 274 272 272 274 275 276 273 274 275 276 275 276 276 277 278 278 278 276 275 274 275
282 285 291 295 291 291 293 290 285 283 282 279 280 281 279 276 271 272 273 273 274 275 276 275 275 275 276 276 276 276 276 276 276 277 278 279 280 281 280 278 277 276 277
284 286 292 296 294 290 292 291 287 283 279 277 278 278 278 276 273 272 273 273 275 275 277 276 276 278 278 277 276 276 277 279 280 279 279 279 280 281 281 280 279 278 278
288 290 293 295 294 291 292 292 289 284 277 275 274 274 275 275 275 274 274 275 276 275 277 277 278 279 279 281 280 279 278 279 280 280 280 279 280 280 281 282 282 281 281
291 289 292 293 293 294 295 293 287 284 278 274 274 273 274 275 276 276 277 277 278 277 278 279 279 281 282 284 285 286 284 283 283 283 283 281 281 281 283 284 284 284 283
291 292 292 291 292 294 298 294 287 283 281 279 276 275 276 276 278 279 279 280 279 279 280 280 279 281 284 288 288 288 287 286 287 287 286 285 284 284 286 286 285 284 284
293 293 293 292 292 293 296 293 289 286 285 284 281 278 280 281 280 278 278 278 280 281 282 281 281 282 285 288 291 293 291 290 292 292 290 289 288 287 287 286 286 285 285
293 295 295 292 292 293 297 297 292 287 287 288 286 284 283 284 279 277 277 279 282 282 284 283 282 283 286 288 290 293 296 297 294 294 293 295 295 292 290 289 288 287 287
293 295 294 294 293 294 297 297 294 291 291 290 287 284 283 285 282 277 278 280 282 284 285 284 285 286 287 288 290 293 297 299 299 297 296 298 299 299 296 292 290 290 291
291 294 295 297 298 299 298 295 294 297 295 292 290 289 291 293 291 285 282 282 283 284 284 284 286 287 289 290 291 294 297 299 298 297 297 299 300 300 300 299 297 296 295
288 291 292 296 297 299 299 295 295 298 296 297 298 297 295 295 295 292 290 289 289 289 287 285 287 289 291 292 293 295 298 298 298 297 297 299 302 303 302 301 301 300 298
Height
5839 5839 5839 5839 5840 5840 5841 5841 5842 5842 5843 5843 5843 5844 5844 5845 5845 5846 5847 5847 5848 5849 5849 5850 5851 5851 5851 5852 5852 5853 5854 5854 5855 5856 5857 5858 5859 5861 5862 5864 5865 5866 5867
5836 5836 5836 5836 5837 5837 5838 5838 5839 5839 5840 5840 5840 5841 5841 5842 5842 5843 5843 5843 5844 5845 5846 5847 5847 5848 5848 5848 5849 5849 5850 5850 5851 5852 5853 5855 5856 5857 5858 5860 5861 5862 5863
5833 5833 5833 5834 5834 5834 5835 5835 5836 5836 5837 5837 5837 5837 5838 5838 5839 5839 5840 5840 5841 5842 5842 5843 5844 5844 5844 5845 5845 5845 5846 5846 5847 5848 5849 5850 5851 5852 5854 5855 5857 5858 5859
5830 5830 5831 5831 5831 5831 5832 5832 5833 5833 5833 5834 5834 5834 5834 5835 5835 5836 5836 5837 5837 5838 5839 5839 5840 5840 5840 5841 5841 5841 5842 5842 5843 5844 5845 5846 5847 5848 5849 5851 5852 5853 5854
5828 5828 5828 5828 5828 5829 5829 5829 5830 5830 5830 5830 5831 5831 5831 5832 5832 5832 5833 5833 5834 5835 5835 5835 5836 5836 5836 5836 5836 5837 5837 5838 5839 5839 5840 5842 5843 5844 5845 5846 5847 5848 5849
5825 5825 5825 5825 5825 5826 5826 5826 5826 5826 5827 5827 5827 5827 5828 5828 5828 5829 5829 5830 5830 5831 5831 5832 5832 5832 5832 5832 5832 5832 5833 5833 5834 5835 5836 5837 5838 5839 5840 5841 5841 5842 5843
5822 5822 5822 5822 5822 5823 5823 5823 5823 5823 5823 5824 5824 5824 5824 5824 5825 5825 5825 5826 5826 5826 5827 5828 5828 5828 5828 5828 5828 5828 5828 5829 5829 5830 5831 5832 5833 5833 5834 5835 5836 5837 5838
5820 5820 5819 5819 5819 5819 5819 5819 5820 5819 5820 5820 5820 5820 5820 5821 5820 5821 5821 5821 5822 5822 5823 5823 5824 5824 5824 5824 5824 5824 5824 5824 5825 5825 5826 5827 5827 5828 5829 5830 5831 5832 5832
5817 5817 5816 5816 5816 5816 5816 5816 5816 5816 5816 5816 5816 5816 5816 5816 5816 5817 5817 5817 5817 5818 5818 5819 5819 5819 5819 5819 5819 5819 5819 5819 5820 5820 5821 5822 5822 5823 5823 5824 5825 5826 5826
5814 5814 5813 5813 5812 5812 5812 5812 5812 5812 5812 5812 5812 5812 5812 5812 5812 5812 5812 5812 5812 5813 5813 5814 5814 5814 5814 5814 5814 5815 5815 5815 5815 5816 5816 5816 5817 5817 5818 5818 5819 5819 5820
5811 5811 5810 5810 5809 5809 5808 5808 5808 5808 5808 5807 5807 5807 5807 5808 5807 5808 5808 5808 5808 5808 5808 5809 5809 5809 5810 5810 5810 5810 5810 5810 5810 5810 5811 5811 5811 5811 5812 5812 5812 5813 5813
5808 5808 5807 5807 5806 5805 5805 5804 5804 5803 5803 5803 5802 5802 5803 5803 5803 5803 5803 5803 5803 5803 5803 5804 5804 5804 5805 5805 5805 5805 5805 5805 5805 5805 5805 5805 5805 5805 5806 5806 5806 5806 5806
5805 5805 5804 5803 5802 5801 5801 5800 5799 5799 5798 5798 5798 5798 5798 5798 5799 5798 5798 5798 5798 5798 5799 5799 5799 5799 5799 5799 5800 5800 5800 5800 5800 5800 5800 5799 5799 5799 5799 5799 5799 5800 5800
5802 5801 5801 5800 5799 5798 5797 5796 5795 5794 5794 5794 5793 5793 5793 5793 5794 5794 5794 5794 5794 5794 5794 5794 5794 5794 5794 5794 5794 5795 5795 5794 5794 5794 5794 5793 5793 5793 5792 5792 5792 5793 5793
5798 5798 5797 5796 5795 5794 5793 5792 5791 5790 5790 5789 5789 5789 5789 5789 5789 5790 5790 5790 5790 5790 5790 5790 5789 5789 5789 5789 5789 5789 5789 5789 5788 5788 5787 5787 5786 5786 5785 5785 5785 5785 5785
5795 5794 5793 5793 5791 5790 5789 5788 5787 5787 5786 5786 5785 5785 5785 5785 5785 5785 5786 5786 5786 5786 5785 5785 5785 5784 5784 5784 5784 5784 5783 5783 5782 5781 5781 5780 5780 5779 5779 5778 5778 5777 5777
5792 5791 5790 5789 5788 5786 5785 5784 5783 5783 5782 5782 5782 5781 5781 5781 5781 5781 5781 5781 5781 5781 5781 5780 5780 5779 5779 5779 5778 5778 5777 5777 5776 5775 5775 5774 5773 5772 5772 5771 5770 5770 5769
5788 5787 5786 5785 5784 5783 5781 5780 5779 5779 5778 5778 5778 5778 5777 5777 5777 5777 5777 5777 5777 5776 5776 5776 5775 5774 5774 5773 5773 5772 5772 5771 5770 5769 5768 5767 5766 5765 5764 5764 5763 5762 5761
5784 5783 5782 5781 5780 5779 5777 5776 5775 5774 5774 5774 5774 5774 5773 5773 5773 5772 5772 5772 5772 5772 5771 5771 5770 5770 5769 5768 5767 5767 5766 5765 5764 5763 5761 5761 5760 5758 5757 5756 5755 5754 5753
5780 5779 5778 5777 5776 5775 5774 5772 5771 5771 5770 5770 5770 5770 5770 5769 5769 5768 5768 5767 5767 5767 5766 5766 5765 5765 5764 5763 5762 5761 5760 5759 5757 5756 5755 5754 5753 5751 5750 5749 5747 5746 5745
5776 5775 5774 5774 5773 5772 5770 5769 5768 5767 5767 5766 5766 5766 5766 5765 5764 5764 5763 5763 5762 5762 5762 5761 5761 5760 5759 5758 5757 5756 5754 5753 5751 5750 5748 5747 5745 5744 5743 5741 5740 5738 5737
5772 5771 5770 5770 5769 5768 5767 5766 5765 5764 5764 5763 5763 5762 5762 5761 5760 5760 5759 5759 5758 5758 5757 5756 5756 5755 5754 5753 5752 5750 5749 5747 5746 5744 5742 5740 5738 5737 5735 5734 5732 5731 5729
5768 5767 5767 5767 5766 5765 5764 5763 5762 5761 5761 5760 5759 5758 5758 5757 5756 5756 5755 5755 5754 5753 5753 5752 5752 5751 5750 5748 5747 5745 5743 5742 5740 5739 5736 5734 5732 5730 5728 5726 5725 5723 5721
5765 5764 5764 5763 5763 5762 5761 5760 5759 5758 5758 5757 5756 5755 5754 5753 5752 5751 5751 5750 5750 5749 5748 5748 5747 5746 5744 5743 5741 5740 5738 5736 5735 5733 5730 5729 5726 5724 5722 5720 5717 5715 5713
5763 5762 5761 5761 5760 5759 5758 5757 5756 5755 5754 5753 5752 5751 5750 5749 5748 5747 5747 5746 5745 5745 5743 5742 5741 5740 5739 5738 5736 5735 5733 5731 5729 5727 5725 5723 5721 5718 5716 5713 5710 5708 5706
5760 5760 5759 5758 5757 5756 5755 5754 5753 5752 5751 5750 5749 5748 5747 5746 5745 5744 5743 5742 5741 5740 5739 5738 5737 5735 5734 5732 5731 5730 5728 5726 5724 5722 5719 5717 5715 5712 5710 5707 5705 5702 5699